Weather History for Valparaiso, FL

Change the Weather History Date:

Monday, December 31, 2012

  Actual Average Record
Temperature  
Mean Temperature 48 °F -  
Max Temperature 62 °F 61 °F 78 °F (1971)
Min Temperature 35 °F 40 °F 12 °F (1983)
Degree Days  
Heating Degree Days 16    
Moisture  
Dew Point 45 °F    
Average Humidity 77    
Maximum Humidity 94    
Minimum Humidity 67    
Precipitation  
Precipitation 0.00 in - - ()
Sea Level Pressure  
Sea Level Pressure 30.27 in    
Wind  
Wind Speed 4 mph (NE)    
Max Wind Speed 9 mph    
Max Gust Speed -    
Visibility 9 miles    
Events      
Averages and records for this station are not official NWS values.
T = Trace of Precipitation, MM = Missing Value Source: NWS Daily Summary

Daily Weather History Graph

Daily Weather History Graph

Search for Another Location

Airport:

Trip Planner

Search our weather history database for the weather conditions in past years. The results will help you decide how hot, cold, wet, or windy it might be!

Date:

Astronomy

Dec. 31, 2012 Rise Set
Actual Time 6:42 AM CST 4:55 PM CST
Civil Twilight 6:16 AM CST 5:22 PM CST
Nautical Twilight 5:46 AM CST 5:52 PM CST
Astronomical Twilight 5:17 AM CST 6:21 PM CST
Moon 8:10 PM CST (12/31) 8:37 AM CST (12/31)
Length of Visible Light 11h 05m
Length of Day
10h 12m
Waning Gibbous, 90% of the Moon is Illuminated
Dec 31
Waning Gibbous
Jan 4
Last Quarter
Jan 11
New
Jan 18
First Quarter
Jan 26
Full

Hourly Weather History & Observations

Time (CST) Temp. Windchill Dew Point Humidity Pressure Visibility Wind Dir Wind Speed Gust Speed Precip Events Conditions
12:55 AM 35.6 °F - 28.9 °F 77% 30.36 in 10.0 mi NNE 2.3 mph - N/A   Scattered Clouds
1:55 AM 35.1 °F 32.2 °F 29.1 °F 79% 30.36 in 10.0 mi NNE 3.5 mph - N/A   Scattered Clouds
2:55 AM 38.8 °F 35.4 °F 29.7 °F 70% 30.36 in 10.0 mi NE 4.6 mph - N/A   Scattered Clouds
3:55 AM 39.4 °F 34.5 °F 29.7 °F 68% 30.34 in 10.0 mi ENE 6.9 mph - N/A   Partly Cloudy
4:55 AM 39.0 °F 36.8 °F 30.4 °F 71% 30.34 in 10.0 mi NE 3.5 mph - N/A   Partly Cloudy
5:55 AM 36.7 °F 32.9 °F 30.7 °F 79% 30.34 in 10.0 mi NE 4.6 mph - N/A   Scattered Clouds
6:55 AM 39.4 °F 37.2 °F 33.1 °F 78% 30.34 in 10.0 mi North 3.5 mph - N/A   Scattered Clouds
7:32 AM 39.2 °F 35.9 °F 33.8 °F 81% 30.32 in 10.0 mi NE 4.6 mph - N/A   Mostly Cloudy
7:55 AM 42.1 °F 37.7 °F 35.4 °F 77% 30.33 in 10.0 mi NE 6.9 mph - N/A   Mostly Cloudy
8:55 AM 47.7 °F - 39.4 °F 73% 30.35 in 10.0 mi NE 5.8 mph - N/A   Mostly Cloudy
9:10 AM 50.0 °F - 41.0 °F 71% 30.34 in 10.0 mi NE 5.8 mph - N/A   Mostly Cloudy
9:41 AM 51.8 °F - 42.8 °F 71% 30.33 in 10.0 mi ENE 5.8 mph - N/A   Overcast
9:55 AM 52.9 °F - 42.4 °F 68% 30.34 in 10.0 mi NE 6.9 mph - N/A   Mostly Cloudy
10:14 AM 53.6 °F - 42.8 °F 67% 30.33 in 10.0 mi NE 5.8 mph - N/A   Mostly Cloudy
10:48 AM 55.4 °F - 44.6 °F 67% 30.33 in 10.0 mi ENE 4.6 mph - N/A   Mostly Cloudy
10:55 AM 55.6 °F - 45.5 °F 69% 30.33 in 10.0 mi ENE 4.6 mph - N/A   Overcast
11:55 AM 57.6 °F - 47.7 °F 70% 30.30 in 10.0 mi East 4.6 mph - N/A   Overcast
12:55 PM 59.9 °F - 48.9 °F 67% 30.27 in 10.0 mi Variable 3.5 mph - N/A   Mostly Cloudy
1:19 PM 60.8 °F - 50.0 °F 68% 30.24 in 10.0 mi Variable 6.9 mph - N/A   Mostly Cloudy
1:55 PM 61.3 °F - 52.5 °F 73% 30.22 in 10.0 mi ENE 5.8 mph - N/A   Overcast
2:33 PM 62.6 °F - 53.6 °F 72% 30.22 in 10.0 mi Variable 3.5 mph - N/A   Overcast
2:55 PM 61.3 °F - 53.1 °F 74% 30.21 in 10.0 mi East 4.6 mph - N/A   Overcast
4:35 PM 59.0 °F - 51.8 °F 77% 30.20 in 10.0 mi NE 3.5 mph - N/A   Light Drizzle
4:55 PM 59.4 °F - 52.5 °F 78% 30.21 in 10.0 mi NE 4.6 mph - 0.00 in   Light Drizzle
5:55 PM 57.6 °F - 53.1 °F 85% 30.22 in 10.0 mi NNE 4.6 mph - 0.00 in   Light Drizzle
6:09 PM 57.2 °F - 51.8 °F 82% 30.20 in 5.0 mi NNW 2.3 mph - N/A   Light Drizzle
6:55 PM 56.8 °F - 53.6 °F 89% 30.22 in 5.0 mi North 4.6 mph - 0.00 in   Light Drizzle
7:20 PM 57.2 °F - 53.6 °F 88% 30.21 in 5.0 mi North 3.5 mph - N/A   Light Drizzle
7:55 PM 56.3 °F - 53.8 °F 91% 30.23 in 5.0 mi North 4.6 mph - 0.00 in   Light Drizzle
8:45 PM 55.4 °F - 53.6 °F 94% 30.18 in 10.0 mi ENE 5.8 mph - N/A   Mostly Cloudy
8:55 PM 55.9 °F - 53.2 °F 91% 30.19 in 10.0 mi ENE 3.5 mph - 0.00 in   Mostly Cloudy
9:20 PM 57.2 °F - 53.6 °F 88% 30.18 in 10.0 mi ENE 3.5 mph - N/A   Mostly Cloudy
9:55 PM 57.0 °F - 52.9 °F 86% 30.19 in 10.0 mi East 5.8 mph - N/A   Mostly Cloudy
10:55 PM 57.2 °F - 52.9 °F 85% 30.14 in 10.0 mi ESE 9.2 mph - N/A   Mostly Cloudy
11:55 PM 56.3 °F - 52.7 °F 88% 30.13 in 10.0 mi ESE 6.9 mph - N/A   Mostly Cloudy